Regional Weather Roundup
Issued by NWS

Home | Current Version | Previous Version | Text Only | Print | Product List | Glossary Off
Versions: 1 2 3 4 5 6 7 8 9 10 11 12 13 14 15 16 17 18 19 20 21 22 23 24 25 26 27 28 29 30 31 32 33 34 35 36 37 38 39 40 41 42 43 44 45 46 47 48 49 50

000
ASUS43 KLSX 281907
RWRMO

WEATHER SUMMARY FOR MISSOURI
NATIONAL WEATHER SERVICE SPRINGFIELD MO
200 PM CDT TUE MAR 28 2017

NOTE: "FAIR" INDICATES FEW OR NO CLOUDS BELOW 12,000 FEET WITH NO
       SIGNIFICANT WEATHER AND/OR OBSTRUCTIONS TO VISIBILITY.
       CURRENT SKY AND/OR WEATHER CONDITIONS ARE NOT AVAILABLE FOR
       CHILLICOTHE AND FARMINGTON.

MOZ001>031-035>038-043-044-053-054-282000-
...NORTHERN AND WESTERN MISSOURI...

CITY           SKY/WX    TMP DP  RH WIND       PRES   REMARKS
KANSAS CTY INT CLOUDY    53  49  86 E10       30.05F
KANSAS C DTWN  CLOUDY    54  49  83 E9        30.04F
LEE`S SUMMIT   CLOUDY    52  50  93 NE7       30.05F
ST JOSEPH      CLOUDY    54  48  80 E14       30.06F
CHILLICOTHE      N/A     53  49  86 NE9       30.09F
KIRKSVILLE     CLOUDY    53  48  83 NE8       30.10F

$$
MOZ066>068-077>081-088>096-101>105-282000-
...SOUTHWEST MISSOURI...

CITY           SKY/WX    TMP DP  RH WIND       PRES   REMARKS
SPRINGFIELD    CLOUDY    61  50  67 SE7       30.00F
JOPLIN         CLOUDY    58  50  75 E10       29.99F
BRANSON        PTSUNNY   64  50  59 S8        30.02F

$$
MOZ032>034-039>042-045>050-055>058-069>072-282000-
...CENTRAL MISSOURI...

CITY           SKY/WX    TMP DP  RH WIND       PRES   REMARKS
COLUMBIA       CLOUDY    54  50  86 E6        30.07F
JEFFERSON CITY CLOUDY    58  49  72 E9        30.07F
ROLLA          PTSUNNY   57  50  77 E9        30.05F
SEDALIA        CLOUDY    55  51  86 E7        30.07F
WHITEMAN AFB   CLOUDY    55  55 100 E6        30.04F FOG
WARRENSBURG    CLOUDY    52  50  93 NE9       30.05F FOG
OSAGE BEACH    CLOUDY    59  50  72 E7        30.05F

$$
MOZ051-052-059>065-282000-
...EAST CENTRAL MISSOURI...

CITY           SKY/WX    TMP DP  RH WIND       PRES   REMARKS
ST LOUIS INTL  CLOUDY    58  48  69 CALM      30.10S
SPIRIT OF STL  CLOUDY    57  49  74 NE3       30.08F
ST CHARLES     CLOUDY    57  49  74 NE3       30.09F

$$
MOZ072>076-082>087-097>100-106>115-282000-
...SOUTH CENTRAL AND SOUTHEAST MISSOURI...

CITY           SKY/WX    TMP DP  RH WIND       PRES   REMARKS
CAPE GIRARDEAU CLOUDY    59  50  72 N7        30.07F
FARMINGTON     CLOUDY    55  49  80 NW3       30.09S
POPLAR BLUFF   CLOUDY    61  52  72 E6        30.06F
WEST PLAINS    CLOUDY    63  50  62 VRB3      30.04F

$$



USA.gov is the U.S. government's official web portal to all federal, state and local government web resources and services.